• Em Portugal
  • Lista de países
  • Para 7 dias
  • Temperatura da água
  • Mapas de satélite
  • Mapa do tempo
  • Widgets de tempo
  • user-avatar
    Iniciar Sessão

    Previsão horária em Ahtopol

    Hoje, 19 Outubro, Sexta-feira

    Tempo Temperatura Precipitação Vento Pressão Humidade
    00:00 +16°C° 0 mm 1 m/s 761 mmHg 95%
    01:00 +15°C° 0 mm 1 m/s 761 mmHg 95%
    02:00 +15°C° 0 mm 1 m/s 761 mmHg 95%
    03:00 +15°C° 0 mm 1 m/s 760 mmHg 95%
    04:00 +15°C° 0 mm 1 m/s 760 mmHg 95%
    05:00 +15°C° 0 mm 1 m/s 760 mmHg 95%
    06:00 +15°C° 0 mm 1 m/s 760 mmHg 92%
    07:00 +16°C° 0 mm 1 m/s 761 mmHg 89%
    08:00 +18°C° 0 mm 1 m/s 761 mmHg 86%
    09:00 +20°C° 0 mm 1 m/s 761 mmHg 77%
    10:00 +21°C° 0 mm 1 m/s 761 mmHg 68%
    11:00 +23°C° 0 mm 1 m/s 761 mmHg 59%
    12:00 +24°C° 0 mm 1 m/s 761 mmHg 56%
    13:00 +25°C° 0 mm 1 m/s 760 mmHg 53%
    14:00 +25°C° 0 mm 1 m/s 760 mmHg 49%
    15:00 +25°C° 0 mm 1 m/s 760 mmHg 53%
    16:00 +24°C° 0 mm 1 m/s 760 mmHg 56%
    17:00 +23°C° 0 mm 2 m/s 760 mmHg 59%
    18:00 +22°C° 0 mm 1 m/s 760 mmHg 63%
    19:00 +21°C° 0 mm 1 m/s 761 mmHg 68%
    20:00 +20°C° 0 mm 1 m/s 761 mmHg 72%
    21:00 +19°C° 0 mm 1 m/s 761 mmHg 73%
    22:00 +19°C° 0 mm 1 m/s 761 mmHg 75%
    23:00 +19°C° 0 mm 1 m/s 761 mmHg 76%

    Amanhã, 20 Outubro, Sábado

    Tempo Temperatura Precipitação Vento Pressão Humidade
    00:00 +18°C° 0 mm 1 m/s 761 mmHg 76%
    01:00 +18°C° 0 mm 1 m/s 761 mmHg 77%
    02:00 +17°C° 0 mm 2 m/s 761 mmHg 77%
    03:00 +16°C° 0 mm 2 m/s 761 mmHg 77%
    04:00 +16°C° 0 mm 2 m/s 761 mmHg 78%
    05:00 +16°C° 0 mm 2 m/s 761 mmHg 78%
    06:00 +16°C° 0 mm 3 m/s 761 mmHg 75%
    07:00 +17°C° 0 mm 3 m/s 762 mmHg 72%
    08:00 +17°C° 0 mm 3 m/s 762 mmHg 68%
    09:00 +19°C° 0 mm 3 m/s 762 mmHg 62%
    10:00 +20°C° 0 mm 4 m/s 762 mmHg 55%
    11:00 +22°C° 0 mm 4 m/s 762 mmHg 48%
    12:00 +22°C° 0 mm 4 m/s 762 mmHg 48%
    13:00 +22°C° 0 mm 4 m/s 761 mmHg 47%
    14:00 +22°C° 0 mm 4 m/s 761 mmHg 47%
    15:00 +21°C° 0 mm 4 m/s 761 mmHg 50%
    16:00 +20°C° 0 mm 4 m/s 761 mmHg 54%
    17:00 +19°C° 0 mm 4 m/s 761 mmHg 57%
    18:00 +18°C° 0 mm 4 m/s 761 mmHg 61%
    19:00 +17°C° 0 mm 4 m/s 762 mmHg 65%
    20:00 +15°C° 0 mm 4 m/s 762 mmHg 69%
    21:00 +15°C° 0 mm 4 m/s 762 mmHg 71%
    22:00 +15°C° 0 mm 4 m/s 762 mmHg 73%
    23:00 +14°C° 0 mm 4 m/s 762 mmHg 75%

    Depois de amanhã, 21 Outubro, Domingo

    Tempo Temperatura Precipitação Vento Pressão Humidade
    00:00 +14°C° 0 mm 4 m/s 762 mmHg 77%
    01:00 +14°C° 0 mm 5 m/s 762 mmHg 79%
    02:00 +13°C° 0 mm 5 m/s 762 mmHg 80%
    03:00 +13°C° 0 mm 5 m/s 762 mmHg 82%
    04:00 +13°C° 0 mm 5 m/s 762 mmHg 84%
    05:00 +13°C° 0 mm 5 m/s 761 mmHg 86%
    06:00 +13°C° 0 mm 5 m/s 762 mmHg 83%
    07:00 +14°C° 0 mm 5 m/s 762 mmHg 81%
    08:00 +14°C° 0 mm 5 m/s 762 mmHg 78%
    09:00 +16°C° 0 mm 5 m/s 762 mmHg 71%
    10:00 +17°C° 0 mm 5 m/s 761 mmHg 64%
    11:00 +20°C° 0 mm 5 m/s 761 mmHg 57%
    12:00 +20°C° 0 mm 4 m/s 761 mmHg 55%
    13:00 +21°C° 0 mm 4 m/s 760 mmHg 53%
    14:00 +21°C° 0 mm 3 m/s 760 mmHg 51%
    15:00 +20°C° 0 mm 3 m/s 760 mmHg 54%
    16:00 +20°C° 0 mm 3 m/s 759 mmHg 58%
    17:00 +19°C° 0 mm 2 m/s 759 mmHg 62%
    18:00 +18°C° 0 mm 2 m/s 759 mmHg 68%
    19:00 +17°C° 0 mm 2 m/s 759 mmHg 73%
    20:00 +16°C° 0 mm 2 m/s 759 mmHg 78%
    21:00 +15°C° 0 mm 2 m/s 759 mmHg 81%
    22:00 +15°C° 0 mm 1 m/s 759 mmHg 83%
    23:00 +15°C° 0 mm 1 m/s 759 mmHg 86%

    22 Outubro, Segunda-feira

    Tempo Temperatura Precipitação Vento Pressão Humidade
    00:00 +15°C° 0 mm 2 m/s 759 mmHg 87%
    01:00 +14°C° 0 mm 2 m/s 759 mmHg 88%
    02:00 +14°C° 0 mm 2 m/s 759 mmHg 89%
    03:00 +14°C° 0 mm 2 m/s 759 mmHg 90%
    04:00 +13°C° 0 mm 3 m/s 759 mmHg 91%
    05:00 +13°C° 0 mm 3 m/s 759 mmHg 91%
    06:00 +13°C° 0.1 mm 3 m/s 759 mmHg 89%
    07:00 +13°C° 0.1 mm 4 m/s 759 mmHg 87%
    08:00 +14°C° 0.1 mm 4 m/s 759 mmHg 85%
    09:00 +14°C° 0.2 mm 5 m/s 759 mmHg 82%
    10:00 +15°C° 0.2 mm 5 m/s 759 mmHg 80%
    11:00 +15°C° 0.2 mm 5 m/s 759 mmHg 78%
    12:00 +15°C° 0.4 mm 5 m/s 759 mmHg 78%
    13:00 +15°C° 0.4 mm 6 m/s 758 mmHg 78%
    14:00 +15°C° 0.4 mm 6 m/s 758 mmHg 78%
    15:00 +15°C° 0.8 mm 6 m/s 758 mmHg 80%
    16:00 +15°C° 0.8 mm 6 m/s 758 mmHg 82%
    17:00 +15°C° 0.8 mm 6 m/s 758 mmHg 84%
    18:00 +14°C° 0.9 mm 6 m/s 758 mmHg 85%
    19:00 +14°C° 0.9 mm 5 m/s 758 mmHg 87%
    20:00 +14°C° 0.9 mm 5 m/s 759 mmHg 88%
    21:00 +14°C° 0.6 mm 5 m/s 759 mmHg 88%
    22:00 +14°C° 0.6 mm 5 m/s 759 mmHg 88%
    23:00 +14°C° 0.6 mm 5 m/s 759 mmHg 88%

    23 Outubro, Terça-feira

    Tempo Temperatura Precipitação Vento Pressão Humidade
    00:00 +13°C° 0.3 mm 5 m/s 758 mmHg 86%
    01:00 +13°C° 0.3 mm 5 m/s 758 mmHg 84%
    02:00 +13°C° 0.3 mm 5 m/s 758 mmHg 82%
    03:00 +13°C° 0.1 mm 5 m/s 758 mmHg 81%
    04:00 +12°C° 0.1 mm 5 m/s 758 mmHg 80%
    05:00 +11°C° 0.1 mm 6 m/s 758 mmHg 79%
    06:00 +11°C° 0.1 mm 6 m/s 758 mmHg 78%
    07:00 +11°C° 0.1 mm 6 m/s 758 mmHg 77%
    08:00 +11°C° 0.1 mm 6 m/s 759 mmHg 76%
    09:00 +13°C° 0.1 mm 6 m/s 759 mmHg 74%
    10:00 +14°C° 0.1 mm 6 m/s 759 mmHg 72%
    11:00 +15°C° 0.1 mm 6 m/s 759 mmHg 70%
    12:00 +15°C° 0.2 mm 7 m/s 758 mmHg 70%
    13:00 +15°C° 0.2 mm 7 m/s 758 mmHg 70%
    14:00 +16°C° 0.2 mm 7 m/s 758 mmHg 70%
    15:00 +15°C° 0.4 mm 7 m/s 758 mmHg 71%
    16:00 +15°C° 0.4 mm 7 m/s 757 mmHg 72%
    17:00 +15°C° 0.4 mm 7 m/s 757 mmHg 73%
    18:00 +14°C° 0.5 mm 7 m/s 757 mmHg 73%
    19:00 +14°C° 0.5 mm 7 m/s 757 mmHg 74%
    20:00 +14°C° 0.5 mm 7 m/s 757 mmHg 74%
    21:00 +14°C° 0.4 mm 7 m/s 757 mmHg 73%
    22:00 +12°C° 0.4 mm 7 m/s 757 mmHg 72%
    23:00 +12°C° 0.4 mm 8 m/s 757 mmHg 71%

    24 Outubro, Quarta-feira

    Tempo Temperatura Precipitação Vento Pressão Humidade
    00:00 +12°C° 0.4 mm 8 m/s 756 mmHg 70%
    01:00 +11°C° 0.4 mm 8 m/s 756 mmHg 69%
    02:00 +11°C° 0.4 mm 9 m/s 755 mmHg 68%
    03:00 +11°C° 0.6 mm 9 m/s 755 mmHg 67%
    04:00 +10°C° 0.6 mm 9 m/s 754 mmHg 67%
    05:00 +10°C° 0.6 mm 9 m/s 754 mmHg 66%
    06:00 +9°C° 0.3 mm 8 m/s 754 mmHg 67%
    07:00 +9°C° 0.3 mm 8 m/s 753 mmHg 68%
    08:00 +9°C° 0.3 mm 8 m/s 753 mmHg 68%
    09:00 +10°C° 0.1 mm 8 m/s 753 mmHg 65%
    10:00 +11°C° 0.1 mm 8 m/s 753 mmHg 62%
    11:00 +12°C° 0.1 mm 8 m/s 752 mmHg 58%
    12:00 +14°C° 0 mm 7 m/s 752 mmHg 57%
    13:00 +14°C° 0 mm 6 m/s 752 mmHg 56%
    14:00 +15°C° 0 mm 5 m/s 752 mmHg 54%
    15:00 +15°C° 0 mm 4 m/s 752 mmHg 56%
    16:00 +14°C° 0 mm 4 m/s 751 mmHg 58%
    17:00 +14°C° 0 mm 3 m/s 751 mmHg 60%
    18:00 +13°C° 0 mm 3 m/s 751 mmHg 63%
    19:00 +12°C° 0 mm 3 m/s 751 mmHg 65%
    20:00 +12°C° 0 mm 3 m/s 751 mmHg 67%
    21:00 +11°C° 0 mm 3 m/s 751 mmHg 70%
    22:00 +11°C° 0 mm 3 m/s 751 mmHg 72%
    23:00 +10°C° 0 mm 3 m/s 750 mmHg 74%
    Mostrar mais